Location: Newark
(43.6583°N, 1.6617°E)
Time: 05:55:09
(UTC+00:00)

Vanguard 1 Rocket - Pass Details

Date: 24 August 2019
Orbit: 651 x 4225 km, 34.3° (Epoch: 20 September)

Event Time Altitude Azimuth Distance (km) Brightness Sun altitude
Exits shadow 05:15:43 -1° 261° (W) 3,271 9.6 0.6°
Rises 05:15:52 0° 261° (W) 3,221 9.5 0.6°
Reaches altitude 10° 05:18:08 10° 249° (WSW) 2,485 9.0 1.0°
Maximum altitude 05:23:10 31° 188° (S) 1,879 8.9 1.9°
Drops below altitude 10° 05:31:15 10° 131° (SE) 4,056 11.3 3.3°
Sets 05:36:09 0° 123° (ESE) 5,680 12.2 4.2°
